Location: Newark
(44.1906°N, 75.9681°W)
Time: 11:22:18
(UTC+00:00)

Envisat - Pass Details

Date: 31 January 2020
Orbit: 764 x 766 km, 98.1° (Epoch: 25 February)

Event Time Altitude Azimuth Distance (km) Brightness Sun altitude
Rises 23:45:09 0° 196° (SSW) 3,219 6.6 -16.9°
Reaches altitude 10° 23:47:46 10° 208° (SSW) 2,298 5.9 -17.3°
Maximum altitude 23:52:03 27° 266° (W) 1,436 5.2 -18.1°
Drops below altitude 10° 23:56:21 10° 324° (NW) 2,312 5.9 -18.9°
Sets 23:59:01 0° 336° (NNW) 3,243 6.5 -19.3°
